Regional Weather Roundup
Issued by NWS

Home | Current Version | Previous Version | Graphics & Text | Print | Product List | Glossary On
Versions: 1 2 3 4 5 6 7 8 9 10 11 12 13 14 15 16 17 18 19 20 21 22 23 24 25 26 27 28 29 30 31 32 33 34 35 36 37 38 39 40 41 42 43 44 45 46 47 48 49 50
000
ASUS43 KIND 010259
RWRIN

WEATHER ROUNDUP FOR INDIANA
NATIONAL WEATHER SERVICE INDIANAPOLIS IN
1100 PM EDT TUE SEP 30 2014

NOTE: "FAIR" INDICATES FEW OR NO CLOUDS BELOW 12,000 FEET WITH NO
SIGNIFICANT WEATHER AND/OR OBSTRUCTIONS TO VISIBILITY.

* - STATION DOES NOT REPORT WEATHER SUCH AS PRECIPITATION OR FOG.

+ - STATION NOT QUALITY CONTROLLED BY THE NATIONAL WEATHER SERVICE.
    USE DATA WITH CAUTION...ESPECIALLY DEWPOINT AND RELATIVE
    HUMIDITY OBSERVATIONS.

INZ001>003-010>013-019-020-010400-
NORTHWEST INDIANA

CITY           SKY/WX    TMP DP  RH WIND       PRES   REMARKS
VALPARAISO     NOT AVBL

$$

LMZ046-743>745-010400-
SOUTHERN LAKE MICHIGAN

STATION/POSITION TIME  TEMP WIND        PRES
                       AIR  DIR/SP/G
                 (UTC) (F)  (DEG/KT/KT) (MB)
MICHIGAN CITY    0200   54   60/  6/  8   N/A

$$

INZ004-005-014>016-021>024-010400-
NORTH CENTRAL INDIANA

CITY           SKY/WX    TMP DP  RH WIND       PRES   REMARKS
SOUTH BEND     NOT AVBL
WARSAW +       CLOUDY    54  46  76 CALM      30.03R

$$

INZ006>009-017-018-025>027-010400-
NORTHEAST INDIANA

CITY           SKY/WX    TMP DP  RH WIND       PRES   REMARKS
ANGOLA *+      CLOUDY    54  48  82 E5        30.02R
FORT WAYNE     CLOUDY    55  48  77 E7        30.02F

$$

INZ028-029-035-036-043>045-051>053-010400-
WEST CENTRAL INDIANA

CITY           SKY/WX    TMP DP  RH WIND       PRES   REMARKS
GREENCASTLE +  CLEAR     54  48  82 NE3       29.99R
LAFAYETTE      CLEAR     51  46  83 NE8       30.01R
TERRE HAUTE    CLEAR     59  51  75 NE7       29.97R

$$

INZ030>032-037>040-046>048-054>057-064-065-010400-
CENTRAL INDIANA

CITY           SKY/WX    TMP DP  RH WIND       PRES   REMARKS
FRANKFORT +    CLEAR     50  50 100 NE3       30.01S
INDIANAPOLIS   PTCLDY    56  48  74 NE13      29.98R
-EAGLE CREEK   CLEAR     55  46  71 NE7       29.99R
KOKOMO *+      PTCLDY    48  43  81 CALM      30.02R
MT COMFORT *+  CLEAR     50  46  87 NE5       30.00R
SHELBYVILLE    CLEAR     55  48  77 NE7       29.98R

$$

INZ033-034-041-042-049-050-058-059-010400-
EAST CENTRAL INDIANA

CITY           SKY/WX    TMP DP  RH WIND       PRES   REMARKS
MUNCIE         CLEAR     47  44  90 CALM      30.00S

$$

INZ060-061-067>069-081>083-085>088-010400-
SOUTHWEST INDIANA

CITY           SKY/WX    TMP DP  RH WIND       PRES   REMARKS
EVANSVILLE     CLEAR     69  60  73 N5        29.93R

$$

INZ062-063-066-070>080-084-089>092-010400-
SOUTH CENTRAL AND SOUTHEAST INDIANA

CITY           SKY/WX    TMP DP  RH WIND       PRES   REMARKS
BLOOMINGTON    CLEAR     56  53  90 CALM      29.96S

$$




USA.gov is the U.S. government's official web portal to all federal, state and local government web resources and services.